Tracking 19709 objects as of 18-Jun-2019
HD Live streaming from Space Station
objects crossing your sky now

COSMOS 1261 DEB

Track COSMOS 1261 DEB now!


NORAD ID: 33520
Int'l Code: 1981-031M
Perigee: 5,881.4 km
Apogee: 34,453.6 km
Inclination: 69.2 °
Period: 717.1 minutes
Semi major axis: 26538 km
RCS: 0.1587 m2 (medium)
Launch date: March 31, 1981
Source: Commonwealth of Independent States (former USSR) (CIS)
Launch site: PLESETSK MISSILE AND SPACE COMPLEX (PKMTR)

Note: This is SATELLITE DEBRIS
aabbcc
Your satellite tracking list
Your tracking list is empty




NASA's NSSDC Master Catalog

Two Line Element Set (TLE):
1 33520U 81031M   17071.45636941 -.00000620 +00000-0 +00000-0 0  9999
2 33520 069.2481 278.2744 5383156 080.3824 021.0722 02.00811053083280
Source of the keplerian elements: AFSPC